STARLINK-3826, 52347

Orbit data source: Space-Track

STARLINK-3826, 52347 is a payload satellite owned by SpaceX/Seattle (US) in LEO that was launched on Fri, 29 Apr 2022 UTC via an FALCON 9 launch vehicle from the Air Force Eastern Test Range (AFETR). Payload-class satellites include a variety of spacecraft equipped with specific instruments for various scientific and technological missions. These include communications satellites like Starlink; space stations such as the ISS; scientific satellites like the Hubble; Earth observation satellites from companies like Planet Labs, Umbra, and HawkEye 360; GPS; miniature CubeSats for education and research; and military/defense satellites.

Loading next visibility...
Identifier
52347, 2022-045S
Orbit
LEO
Country
Flag of USUS
Related business
Manufacturer
SpaceX/Seattle
Mission
Operational Commercial Communications
Bus & Motor
STARLINK, Unknown motor
Mass
297 kg wet, ~275 kg dry
Launch date (UTC)
2022-04-29 (4 years ago)
Launch vehicle
FALCON 9
Launch site
Air Force Eastern Test Range (AFETR)
Object type
Payload
Rocket body
Debris
Shape & HBR
Box + 1 Pan, 10.1 m
Radar Cross Section
11.087 m², Large (>1 m²)

Expand to show TLE details & history
Last TLE update: 7 hours ago

TLE from 7 hours ago
0 STARLINK-3826
1 52347U 22045S   26119.85666076  .00000169  00000-0  28717-4 0  9992
2 52347  53.2183 329.4303 0001376  92.7103 267.4047 15.08839587223504
Epoch: 2026-04-29T20:33Z
TLE epoch observation values (Epoch: 2026-04-29T20:33:35.489Z)
Latitude
-0.00001°
Longitude
163.22081°
Altitude
540.685 km
Speed
7.593 km/s
True Right ascension
21h 57m 43s
True Declination
0° 00' 00"
Sunlit
Object was in daylight at epoch
Visualization orbit readout
Latitude
Unknown
Longitude
Unknown
Altitude
Unknown
Speed
Unknown
Apparent Right ascension
Unknown
Apparent Declination
Unknown
Sunlit
N/A
Visualization observer readout
Local Sidereal Time
11:14:27
Azimuth
Unknown
Elevation
Unknown
Doppler factor
Unknown
Orbital elements
Apogee altitude
540.941 km
Perigee altitude
539.038 km
Semi-major axis
6,918.126 km
Eccentricity
0.00014
Inclination
53.2183°
RAAN
329.4303°
Arg. of periapsis
92.7103°
True anomaly
267.38895°
Mean anomaly
267.4047°
Eccentric anomaly
267.39682°
Mean motion
3.7719 °/min
Orbital period
95.44 mins
BSTAR
0.000028717
Loading maneuver chart data...
Computing Atmospheric mass density...

Documentation

Showing up to 5 results
|